Location: Sant�Antonio Abate
(40.7167°N, 14.5333°E)
Time: 22:10:27
(UTC+00:00)

Daily predictions for brighter satellites

Satellite Brightness Start Highest point End
(mag) Time Altitude Azimuth Time Altitude Azimuth Time Altitude Azimuth
ISS -1.4 16:07:08 10° NW 16:09:00 14° N 16:10:53 10° NNE
Cosmos 1464 Rocket 4.1 16:03:41 10° S 16:10:01 75° E 16:16:24 10° N
NOAA 6 4.1 16:06:46 10° SSE 16:11:48 57° ENE 16:16:50 10° N
Cosmos 1271 Rocket 4.0 16:14:35 10° SSW 16:18:19 44° WNW 16:22:07 10° N
CZ-4B R/B 3.4 16:16:26 10° S 16:20:39 66° WSW 16:24:40 10° NNW
Cosmos 1408 Rocket 3.5 16:17:07 10° N 16:21:25 63° E 16:25:44 10° SSE
Atlas Centaur 2 4.0 16:22:26 10° SSW 16:23:13 11° SSW 16:24:00 10° S
Cosmos 1782 4.3 16:21:55 10° SE 16:24:36 18° E 16:26:58 11° NE
Cosmos 1763 Rocket 3.9 16:20:50 10° S 16:25:32 41° ESE 16:30:18 10° NNE
Cosmos 1697 Rocket 3.7 16:21:11 10° N 16:25:40 24° NE 16:30:09 10° ESE
Cosmos 1743 Rocket 4.1 16:21:46 10° N 16:25:46 36° ENE 16:29:45 10° SE
Cosmos 1980 Rocket 3.8 16:24:16 10° NNE 16:27:11 14° NE 16:28:49 13° ENE
USA 267 4.3 16:22:36 10° NE 16:28:24 36° NNW 16:34:14 10° W
CZ-2C R/B 3.7 16:23:51 10° S 16:28:50 57° W 16:33:38 10° NNW
Lacrosse 5 2.7 16:24:16 10° NW 16:29:16 56° SW 16:34:14 10° SSE
Nadezhda 4 Rocket 4.0 16:23:02 10° N 16:29:19 69° E 16:35:38 10° SSE
CZ-4B DEB 4.2 16:25:36 10° SSE 16:31:04 66° ENE 16:36:32 10° N
Radarsat 4.5 16:26:55 10° SSE 16:32:05 76° ENE 16:37:18 10° N
Cosmos 1656 3.8 16:26:48 10° NNW 16:32:12 50° ENE 16:37:37 10° SE
Cosmos 2082 Rocket 3.6 16:30:37 10° SE 16:34:25 19° E 16:36:39 15° ENE
Cosmos 1340 Rocket 2.9 16:34:23 10° N 16:38:24 58° E 16:42:24 10° SSE
COSMOS 2406 3.8 16:34:14 10° S 16:39:25 36° ESE 16:43:56 13° NE
Cosmos 1092 Rocket 4.2 16:33:28 10° N 16:39:36 48° ENE 16:45:41 10° SSE
AQUARIUS 4.2 16:35:30 10° SSE 16:39:59 88° WSW 16:44:30 10° NNW
USA 229 DEB 4.3 16:33:42 10° NNW 16:40:34 41° NE 16:47:50 10° ESE
USA 229 4.3 16:33:48 10° NNW 16:40:40 41° NE 16:47:54 10° ESE
Cosmos 990 Rocket 4.1 16:38:35 10° N 16:43:38 48° ENE 16:48:37 10° SE
SKYMED 2 4.0 16:41:16 10° NNE 16:45:23 41° E 16:49:29 10° S
PAYLOAD B 4.2 16:41:07 10° SSE 16:46:41 70° ENE 16:52:16 10° N
Cosmos 1933 3.5 16:42:48 10° S 16:46:44 51° E 16:50:41 10° NNE
ATLAS CENTAUR R/B 3.3 16:35:00 10° SW 16:47:04 86° SE 16:50:57 17° NE
USA 276 3.6 16:44:50 10° NW 16:47:17 21° NNE 16:47:51 20° NNE
Cosmos 1602 4.2 16:45:09 10° N 16:48:44 36° ENE 16:52:19 10° SE
SJ 16-02 3.0 16:48:11 10° NW 16:52:14 37° WSW 16:56:16 10° S
Cosmos 2034 Rocket 4.2 16:47:22 10° SSW 16:53:31 73° W 16:59:41 10° N
Cosmos 1500 Rocket 3.5 16:51:48 10° N 16:56:16 86° E 17:00:40 10° S
Cosmos 1627 Rocket 4.5 16:51:14 10° N 16:57:19 56° E 17:03:18 10° SSE
CZ-2D R/B 3.2 16:55:25 10° S 16:59:16 84° WSW 17:03:07 10° NNW
USA 234 3.9 16:54:12 10° SSE 17:00:37 57° SW 17:07:03 10° NW
NOSS 3-1 (A) 4.1 16:56:44 10° NNW 17:04:14 60° NE 17:12:57 10° SE
Meteor 1-20 Rocket 4.3 17:00:44 10° N 17:06:35 88° E 17:12:26 10° S
Cosmos 1833 Rocket 2.6 17:01:31 10° SSW 17:07:07 80° ESE 17:11:51 15° NNE
Cosmos 1805 Rocket 3.4 17:02:48 10° N 17:07:07 65° E 17:11:25 10° SSE
NOSS 3-1 (C) 4.2 16:59:42 10° NW 17:07:26 89° WSW 17:16:23 10° SSE
Cosmos 2279 Rocket 4.3 17:03:09 10° SSE 17:08:58 43° E 17:14:47 10° NNE
CZ-4B R/B 3.1 17:05:55 10° SSE 17:11:23 79° ENE 17:16:48 10° NNW
Cosmos 2360 4.4 17:06:54 10° NNW 17:12:29 49° ENE 17:18:00 10° SE
ARGOS 3.1 17:10:18 10° SSE 17:15:40 68° ENE 17:21:04 10° N
H-2A R/B 2.3 17:12:08 10° S 17:17:23 70° WSW 17:22:32 10° NNW
Sich 1 2.9 17:14:03 10° N 17:18:19 67° E 17:22:35 10° SSE
YAOGAN 3 4.4 17:14:24 10° SSE 17:18:43 72° ENE 17:23:05 10° N
Cosmos 1634 Rocket 3.9 17:12:41 10° S 17:19:00 84° E 17:25:22 10° N
GPS 2-04 Rocket1 3.8 17:16:10 10° SW 17:19:50 32° SSE 17:20:42 29° SE
Cosmos 1898 Rocket 3.4 17:17:05 10° NNW 17:22:23 79° ENE 17:27:35 10° SSE
MOS 1-B Rocket 4.3 17:16:53 10° N 17:22:39 71° WNW 17:29:06 10° SSW
COSMOS 2455 2.9 17:17:39 10° S 17:23:30 56° ESE 17:25:52 35° NE
CZ-4 R/B 4.3 17:23:17 10° SSE 17:27:24 86° ENE 17:31:33 10° NNW
Landsat 5 3.4 17:27:18 26° N 17:29:36 85° W 17:33:38 10° SSW
Cosmos 44 3.8 17:26:15 10° NW 17:30:52 54° WSW 17:35:11 10° SSE
COSMO-SKYMED 1 3.2 17:29:13 10° N 17:33:29 56° WNW 17:37:42 10° SSW
SL-08 RB Rocket 3.6 17:29:06 10° SSE 17:33:43 71° ENE 17:38:20 10° N
Cosmos 540 Rocket 3.4 17:29:03 10° SSW 17:34:09 80° WNW 17:37:03 26° NNE
deb Chang Zheng 4 4.0 17:29:56 10° S 17:34:11 60° W 17:38:27 10° NNW
Meteor 2-16 Rocket 4.4 17:28:15 10° N 17:34:17 60° E 17:40:18 10° SSE
Cosmos 2026 Rocket 4.1 17:30:36 10° N 17:36:45 74° W 17:42:48 10° S
SJ-11-01 4.5 17:32:55 10° S 17:37:39 72° WSW 17:42:25 10° NNW
Okean O Rocket 1.9 17:34:01 10° S 17:38:25 68° WSW 17:42:52 10° NNW
CZ-2C R/B 3.1 17:34:37 10° N 17:39:44 57° WNW 17:44:46 10° SSW
Cosmos 2180 Rocket 4.4 17:39:47 10° S 17:46:04 66° E 17:49:36 27° NNE
ISS -0.9 17:44:41 10° NNW 17:44:55 11° NNW 17:44:55 11° NNW
CZ-4C R/B 3.4 17:42:59 10° NNW 17:49:43 40° NE 17:49:48 40° NE
Meteor 1-5 Rocket 4.2 17:51:31 10° N 17:57:33 80° E 18:03:29 10° SSE
GEOS 3 Rocket 3.7 17:56:53 44° SSE 17:58:36 76° SW 18:03:50 10° NW
NOAA 15 4.5 17:53:42 10° SSE 17:59:00 90° E 18:04:19 10° NNW
Cosmos 2084 4.1 17:56:15 10° NW 17:59:41 54° WNW 17:59:41 54° WNW
Cosmos 2369 3.6 17:56:05 10° NNW 18:01:51 87° ENE 18:02:24 74° SSE
DMSP B5D2-2 4.0 18:06:38 81° W 18:06:38 81° W 18:11:49 10° SSW
Cosmos 841 Rocket 4.2 18:03:47 10° SW 18:08:48 50° WNW 18:10:09 40° NNW
Cosmos 1697 Rocket 3.4 18:04:30 10° NNW 18:09:56 52° WSW 18:15:20 10° S
Cosmos 1937 Rocket 4.2 18:04:58 10° NNW 18:10:08 53° WSW 18:15:17 10° S
Cosmos 1980 Rocket 2.6 18:06:24 10° NNW 18:10:40 52° NNW 18:10:40 52° NNW
IRAS Rocket 4.2 18:13:13 76° SW 18:13:13 76° SW 18:18:17 10° SSW
Cosmos 2082 Rocket 2.6 18:12:20 10° SW 18:17:57 60° WNW 18:18:33 57° NW
Meteor 2-15 4.4 18:12:42 10° S 18:18:15 74° SSW 18:18:15 74° SSW
CZ-4C R/B 4.3 19:31:16 10° NW 19:35:02 32° NW 19:35:02 32° NW
